Home > Weather > Bloemfontein > Past weeks

Flag for South Africa Past Weather in Bloemfontein, South Africa — Yesterday and Last 2 Weeks

Now
46 °F

Sunny.


Feels Like: 46 °F
Forecast: 33 / 73 °F
Wind: No wind

Location: Bloemfontein Airport

Current Time: Aug 24, 2016 at 8:27:42 AM

Latest Report: Aug 24, 2016 at 8:02 AM


Visibility: 10 mi

Pressure: 30.48 "Hg (25.72 "Hg at 1397m altitude)

Humidity: 53%

Dew Point: 30 °F

Location of BloemfonteinLocation

Past Weather in Bloemfontein — Graph

°F

Bloemfontein Temperature Yesterday

Maximum temperature yesterday: 63 °F (at 3:00 PM)
Minimum temperature yesterday: 28 °F (at 6:00 AM)
Average temperature yesterday: 45 °F

High & Low Weather Summary for the Past Weeks

 TemperatureHumidityPressure
High75 °F (Aug 13, 3:00 PM)100% (Aug 20, 3:00 AM)30.54 "Hg (Aug 20, 3:00 AM)
Low27 °F (Aug 9, 7:00 AM)10% (Aug 10, 5:00 PM)29.98 "Hg (Aug 13, 4:00 PM)
Average53 °F50%30.28 "Hg
* Reported Aug 9 7:00 AM — Aug 24 7:00 AM, Bloemfontein, Weather by CustomWeather, © 2016

Note: Actual official high and low records may vary slightly from our data, if they occured in-between our weather recording intervals... More about our weather records

Advertising

Bloemfontein Weather History for the Previous 24 Hours

Scroll right to see more
 ConditionsComfort  
Time TempWeatherWind HumidityBarometerVisibility
7:00 AM
Wed, Aug 24
34 °FSunny.2 mph75%30.45 "Hg10 mi
6:00 AM36 °FSunny.No wind75%30.45 "Hg10 mi
5:00 AM36 °FClear.No wind70%30.42 "Hg10 mi
4:00 AM34 °FChilly.1 mph70%30.42 "HgN/A
3:00 AM36 °FChilly.2 mph65%30.45 "HgN/A
2:00 AM37 °FChilly.No wind60%30.45 "HgN/A
1:00 AM37 °FChilly.3 mph60%30.45 "HgN/A
12:00 AM39 °FChilly.2 mph61%30.45 "HgN/A
11:00 PM
Tue, Aug 23
39 °FChilly.2 mph52%30.45 "HgN/A
10:00 PM43 °FQuite cool.3 mph46%30.45 "HgN/A
9:00 PM45 °FQuite cool.2 mph42%30.45 "HgN/A
8:00 PM46 °FClear.3 mph37%30.42 "Hg10 mi
7:00 PM54 °FClear.2 mph24%30.42 "Hg10 mi
6:00 PM59 °FClear.5 mph16%30.42 "Hg10 mi
5:00 PM61 °FClear.3 mph15%30.42 "Hg10 mi
4:00 PM63 °FPassing clouds.3 mph13%30.42 "HgN/A
3:00 PM63 °FPassing clouds.6 mph13%30.42 "HgN/A
2:00 PM59 °FPassing clouds.7 mph17%30.45 "HgN/A
1:00 PM57 °FPassing clouds.6 mph20%30.45 "HgN/A
12:00 PM54 °FPassing clouds.6 mph28%30.51 "HgN/A
11:00 AM54 °FSunny.3 mph33%30.54 "Hg10 mi
10:00 AM48 °FPassing clouds.7 mph37%30.51 "HgN/A
9:00 AM43 °FPassing clouds.5 mph49%30.51 "HgN/A
8:00 AM37 °FSunny.2 mph70%30.51 "Hg10 mi
Weather by CustomWeather, © 2016

See weather overviewHow to use our weather pages